{"data":{"norad_id":69688,"epoch":"2026-09-20T01:03:56.768256Z","epoch_age_seconds":61033,"freshness":"FRESH","line1":"1 69688U 26145M   26263.04440704  .00021826  00000+0  67667-3 0  9990","line2":"2 69688  97.2806 109.7232 0003196  74.1620 285.9975 15.33429741 13473","mean_motion":15.33429741,"eccentricity":0.0003196,"inclination_deg":97.2806,"raan_deg":109.7232,"arg_perigee_deg":74.162,"mean_anomaly_deg":285.9975,"bstar":0.00067667,"rev_number":1347,"period_min":93.907139107719,"perigee_km":463.40132020925,"apogee_km":467.77582959673,"semimajor_km":6843.725574903,"source":"CELESTRAK","updated_at":"2026-09-20T09:00:44.254114Z"}}